Tracking 31027 objects as of 19-Jul-2025
HD Live streaming from Space Station
objects crossing your sky now

SL-6 R/B(2)

Track SL-6 R/B(2) now!


NORAD ID: 14796
Int'l Code: 1984-024D
Perigee: 6,551.5 km
Apogee: 33,421.2 km
Inclination: 71.4 °
Period: 709.8 minutes
Semi major axis: 26357 km
RCS: 6.8684 m2 (large)
Launch date: March 6, 1984
Source: Commonwealth of Independent States (former USSR) (CIS)
Launch site: PLESETSK MISSILE AND SPACE COMPLEX (PKMTR)

Note: This is a ROCKET BODY
Your satellite tracking list
SL-8 R/B
Track 1 satellite(s)




NASA's NSSDC Master Catalog

Two Line Element Set (TLE):
1 14796U 84024D   25199.58290265 -.00000151  00000-0  00000-0 0  9996
2 14796  71.3702  98.4207 5097192 341.6787 219.3582  2.02885165306330
Source of the keplerian elements: AFSPC